Home   Weather   Judenburg   Past weeks

Flag for Austria Past Weather in Judenburg, Styria, Austria — Yesterday and Last 2 Weeks

Now
41 °F

Passing clouds.


Feels Like: 34 °F
Forecast: 26 / 40 °F
Wind: 13 mph from West

Location: Zeltweg

Current Time: Feb 28, 2017 at 6:36:51 am

Latest Report: Feb 28, 2017 at 5:50 am


Visibility: 12 mi

Pressure: 29.59 "Hg (27.02 "Hg at 739m altitude)

Humidity: 57%

Dew Point: 27 °F

Location of JudenburgLocation

Past Weather in Judenburg — Graph

°F

Judenburg Temperature Yesterday

Maximum temperature yesterday: 54 °F (at 1:50 pm)
Minimum temperature yesterday: 30 °F (at 6:50 am)
Average temperature yesterday: 44 °F

High & Low Weather Summary for the Past Weeks

 TemperatureHumidityPressure
High59 °F (Feb 22, 2:20 pm)100% (Feb 13, 7:50 pm)30.60 "Hg (Feb 13, 7:50 pm)
Low23 °F (Feb 14, 5:50 am)22% (Feb 27, 2:20 pm)29.59 "Hg (Feb 24, 3:50 am)
Average38 °F71%30.14 "Hg
* Reported Feb 13 4:50 am — Feb 28 4:50 am, Judenburg, Weather by CustomWeather, © 2017

Note: Actual official high and low records may vary slightly from our data, if they occured in-between our weather recording intervals... More about our weather records

Advertising

Judenburg Weather History for the Previous 24 Hours

Scroll right to see more
 ConditionsComfort  
Time TempWeatherWind HumidityBarometerVisibility
4:50 am
Tue, Feb 28
39 °FPassing clouds.12 mph61%29.59 "Hg12 mi
9:50 pm
Mon, Feb 27
41 °FClear.8 mph45%29.74 "Hg12 mi
8:50 pm36 °FPassing clouds.5 mph60%29.74 "Hg12 mi
7:50 pm41 °FPassing clouds.5 mph49%29.74 "Hg12 mi
6:50 pm43 °FPassing clouds.5 mph46%29.74 "Hg19 mi
5:50 pm50 °FPassing clouds.8 mph30%29.74 "Hg25 mi
4:50 pm52 °FBroken clouds.12 mph28%29.74 "Hg25 mi
4:20 pm52 °FPartly sunny.17 mph28%29.74 "Hg25 mi
3:50 pm54 °FPartly sunny.16 mph22%29.74 "Hg25 mi
3:20 pm54 °FPartly sunny.16 mph22%29.77 "Hg25 mi
2:50 pm54 °FPartly sunny.10 mph22%29.77 "Hg25 mi
2:20 pm54 °FBroken clouds.10 mph22%29.77 "Hg25 mi
1:50 pm54 °FPartly sunny.7 mph24%29.80 "Hg25 mi
1:20 pm52 °FPartly sunny.10 mph35%29.80 "Hg25 mi
12:50 pm52 °FPartly sunny.8 mph38%29.83 "Hg25 mi
12:20 pm52 °FPartly sunny.2 mph44%29.86 "Hg25 mi
11:50 am46 °FScattered clouds.1 mph50%29.89 "Hg25 mi
11:20 am45 °FBroken clouds.3 mph53%29.89 "Hg19 mi
10:50 am43 °FPartly sunny.1 mph57%29.92 "Hg12 mi
10:20 am41 °FScattered clouds.5 mph61%29.92 "Hg12 mi
9:50 am43 °FScattered clouds.2 mph57%29.95 "Hg12 mi
9:20 am39 °FScattered clouds.1 mph65%29.95 "Hg12 mi
8:50 am37 °FBroken clouds.1 mph70%29.98 "Hg12 mi
8:20 am34 °FBroken clouds.1 mph81%29.98 "Hg12 mi
7:50 am32 °FPartly sunny.1 mph87%29.98 "Hg12 mi
7:20 am32 °FScattered clouds.1 mph80%29.98 "Hg12 mi
6:50 am30 °FPartly sunny.2 mph93%29.98 "Hg9 mi
Weather by CustomWeather, © 2017

See weather overviewHow to use our weather pages